TimeEST,TemperatureF,Dew PointF,Humidity,Sea Level PressureIn,VisibilityMPH,Wind Direction,Wind SpeedMPH,Gust SpeedMPH,PrecipitationIn,Events,Conditions,WindDirDegrees,DateUTC
12:15 AM,6.6,-9.6,48,30.07,10.0,SW,4.6,-,N/A,,Unknown,230,2013-02-19 05:15:00
12:35 AM,6.3,-9.0,50,30.06,10.0,Calm,Calm,-,N/A,,Unknown,0,2013-02-19 05:35:00
12:55 AM,3.2,-8.0,60,30.07,10.0,Calm,Calm,-,N/A,,Unknown,0,2013-02-19 05:55:00
1:15 AM,5.0,-8.9,53,30.07,10.0,Calm,Calm,-,N/A,,Unknown,0,2013-02-19 06:15:00
1:35 AM,3.7,-8.0,58,30.07,10.0,Calm,Calm,-,N/A,,Unknown,0,2013-02-19 06:35:00
1:55 AM,3.9,-8.3,57,30.08,10.0,Calm,Calm,-,N/A,,Unknown,0,2013-02-19 06:55:00
2:15 AM,4.5,-7.8,57,30.09,10.0,Calm,Calm,-,N/A,,Unknown,0,2013-02-19 07:15:00
2:35 AM,4.6,-7.6,57,30.09,10.0,Calm,Calm,-,N/A,,Unknown,0,2013-02-19 07:35:00
2:55 AM,5.9,-6.0,58,30.10,10.0,WSW,3.5,-,N/A,,Unknown,250,2013-02-19 07:55:00
3:15 AM,5.0,-5.6,62,30.09,10.0,Calm,Calm,-,N/A,,Unknown,0,2013-02-19 08:15:00
3:35 AM,5.5,-5.1,62,30.09,10.0,Calm,Calm,-,N/A,,Unknown,0,2013-02-19 08:35:00
3:55 AM,7.3,-5.4,56,30.10,10.0,Calm,Calm,-,N/A,,Unknown,0,2013-02-19 08:55:00
4:15 AM,6.8,-2.7,65,30.09,10.0,Calm,Calm,-,N/A,,Unknown,0,2013-02-19 09:15:00
4:35 AM,7.5,-4.0,59,30.10,10.0,Calm,Calm,-,N/A,,Unknown,0,2013-02-19 09:35:00
4:55 AM,6.3,-4.0,63,30.10,10.0,Calm,Calm,-,N/A,,Unknown,0,2013-02-19 09:55:00
5:15 AM,7.3,-4.9,57,30.08,10.0,SW,3.5,-,N/A,,Unknown,230,2013-02-19 10:15:00
5:35 AM,7.5,-4.9,57,30.08,10.0,Calm,Calm,-,N/A,,Unknown,0,2013-02-19 10:35:00
5:55 AM,8.6,-5.1,54,30.06,10.0,Calm,Calm,-,N/A,,Unknown,0,2013-02-19 10:55:00
6:15 AM,7.9,-1.7,65,30.06,10.0,Calm,Calm,-,N/A,,Unknown,0,2013-02-19 11:15:00
6:35 AM,7.7,-0.9,68,30.05,10.0,Calm,Calm,-,N/A,,Unknown,0,2013-02-19 11:35:00
6:55 AM,7.5,-1.5,67,30.05,10.0,Calm,Calm,-,N/A,,Unknown,0,2013-02-19 11:55:00
7:35 AM,7.9,-3.6,59,30.03,10.0,Calm,Calm,-,N/A,,Unknown,0,2013-02-19 12:35:00
7:55 AM,8.2,-2.2,63,30.03,10.0,Calm,Calm,-,N/A,,Unknown,0,2013-02-19 12:55:00
8:15 AM,11.5,-2.0,55,30.02,10.0,Calm,Calm,-,N/A,,Unknown,0,2013-02-19 13:15:00
8:35 AM,12.7,-2.0,52,30.01,10.0,Calm,Calm,-,N/A,,Unknown,0,2013-02-19 13:35:00
8:55 AM,13.8,-2.9,47,30.00,10.0,Calm,Calm,-,N/A,,Unknown,0,2013-02-19 13:55:00
9:15 AM,15.6,-3.6,42,29.99,10.0,Calm,Calm,-,N/A,,Unknown,0,2013-02-19 14:15:00
9:35 AM,16.9,-4.4,39,29.99,10.0,Calm,Calm,-,N/A,,Unknown,0,2013-02-19 14:35:00
9:55 AM,18.5,-4.0,37,29.99,10.0,Calm,Calm,-,N/A,,Unknown,0,2013-02-19 14:55:00
10:15 AM,20.5,-4.9,33,29.98,10.0,South,4.6,-,N/A,,Unknown,170,2013-02-19 15:15:00
10:35 AM,22.1,-4.0,32,29.96,10.0,South,3.5,-,N/A,,Unknown,170,2013-02-19 15:35:00
10:55 AM,24.8,-4.4,28,29.94,10.0,SSE,3.5,-,N/A,,Unknown,160,2013-02-19 15:55:00
11:15 AM,26.8,-6.5,23,29.92,10.0,SSE,5.8,-,N/A,,Unknown,160,2013-02-19 16:15:00
11:35 AM,28.4,-6.5,22,29.91,10.0,South,6.9,-,N/A,,Unknown,190,2013-02-19 16:35:00
11:55 AM,30.0,-7.6,19,29.91,10.0,South,8.1,-,N/A,,Unknown,190,2013-02-19 16:55:00
12:15 PM,30.7,-5.8,21,29.88,10.0,SSE,5.8,-,N/A,,Unknown,160,2013-02-19 17:15:00
12:35 PM,30.9,-4.0,22,29.86,10.0,SSE,4.6,-,N/A,,Unknown,160,2013-02-19 17:35:00
1:35 PM,33.3,-0.4,24,29.81,10.0,South,6.9,-,N/A,,Unknown,180,2013-02-19 18:35:00
1:55 PM,33.8,-0.9,23,29.79,10.0,South,6.9,-,N/A,,Unknown,190,2013-02-19 18:55:00
2:15 PM,34.2,0.7,24,29.78,10.0,South,4.6,-,N/A,,Unknown,180,2013-02-19 19:15:00
2:35 PM,35.1,2.8,26,29.77,10.0,South,5.8,-,N/A,,Unknown,170,2013-02-19 19:35:00
2:55 PM,35.6,4.3,27,29.75,10.0,South,4.6,-,N/A,,Unknown,180,2013-02-19 19:55:00
3:15 PM,36.5,5.4,27,29.74,10.0,SSW,5.8,-,N/A,,Unknown,200,2013-02-19 20:15:00
3:35 PM,37.4,7.3,29,29.74,10.0,South,3.5,-,N/A,,Unknown,190,2013-02-19 20:35:00
3:55 PM,38.1,10.4,32,29.73,10.0,South,6.9,-,N/A,,Unknown,170,2013-02-19 20:55:00
4:15 PM,38.7,10.4,31,29.71,10.0,SSE,6.9,-,N/A,,Unknown,150,2013-02-19 21:15:00
4:35 PM,38.7,12.4,34,29.71,10.0,SSW,5.8,-,N/A,,Unknown,200,2013-02-19 21:35:00
4:55 PM,38.7,15.4,39,29.71,10.0,South,9.2,16.1,N/A,,Unknown,180,2013-02-19 21:55:00
5:15 PM,38.7,16.5,41,29.71,10.0,South,8.1,-,N/A,,Unknown,190,2013-02-19 22:15:00
5:35 PM,37.9,17.1,43,29.71,10.0,South,10.4,-,N/A,,Unknown,180,2013-02-19 22:35:00
5:55 PM,37.6,20.7,51,29.71,10.0,SSE,11.5,19.6,N/A,,Unknown,160,2013-02-19 22:55:00
6:15 PM,37.0,21.9,54,29.70,10.0,South,9.2,20.7,N/A,,Unknown,170,2013-02-19 23:15:00
6:35 PM,36.9,23.4,58,29.69,10.0,South,9.2,18.4,N/A,,Unknown,190,2013-02-19 23:35:00
7:35 PM,36.0,24.1,62,29.67,10.0,SE,3.5,-,N/A,,Unknown,140,2013-02-20 00:35:00
7:55 PM,35.8,25.0,65,29.65,10.0,SSE,8.1,-,N/A,,Unknown,150,2013-02-20 00:55:00
8:15 PM,35.2,25.9,69,29.65,10.0,Calm,Calm,-,N/A,,Unknown,0,2013-02-20 01:15:00
8:55 PM,32.5,29.7,89,29.64,2.5,Calm,Calm,-,N/A,Snow,Light Snow,0,2013-02-20 01:55:00
9:15 PM,32.2,29.8,91,29.62,4.0,Calm,Calm,-,N/A,Snow,Light Snow,0,2013-02-20 02:15:00
9:35 PM,32.0,29.7,91,29.61,2.5,Calm,Calm,-,N/A,Snow,Light Snow,0,2013-02-20 02:35:00
9:55 PM,32.0,29.3,90,29.61,2.0,Calm,Calm,-,N/A,Snow,Light Snow,0,2013-02-20 02:55:00
10:15 PM,32.0,29.3,90,29.58,1.5,Calm,Calm,-,N/A,Snow,Light Snow,0,2013-02-20 03:15:00
10:35 PM,32.0,29.7,91,29.57,1.5,Calm,Calm,-,N/A,Snow,Light Snow,0,2013-02-20 03:35:00
10:55 PM,32.0,29.8,92,29.56,2.0,Calm,Calm,-,N/A,,Unknown,0,2013-02-20 03:55:00
11:15 PM,32.0,30.0,92,29.56,1.0,Calm,Calm,-,N/A,Snow,Light Snow,0,2013-02-20 04:15:00
11:35 PM,32.0,29.8,92,29.57,0.8,Calm,Calm,-,N/A,,Unknown,0,2013-02-20 04:35:00
11:55 PM,31.6,29.3,91,29.55,1.0,Calm,Calm,-,N/A,Snow,Light Snow,0,2013-02-20 04:55:00